Hourly Data Report for September 16, 2021

VICTORIA UNIVERSITY CS
BRITISH COLUMBIA
Current Station Operator: ECCC - MSC

48°27'25.200" N
123°18'16.600" W
60.10 m
1018598
71783
WYJ

Download Data

Hourly Data (September 2021)
Hourly Data Report for September 16, 2021
TIME
LST
Temp Definition
°C
Dew Point Definition
°C
Rel Hum Definition
%
Precip. Amount Definition
mm

Wind Dir Definition
10's deg

Wind Spd Definition
km/h
Visibility Definition
km
Stn Press Definition
kPa
Hmdx Definition


Wind Chill Definition


Weather Definition


00:00 7.9 7.8 100 0.0 27 2   101.29     LegendNANA
01:00 7.2 6.8 97 0.0 30 2   101.32     LegendNANA
02:00 8.6 5.8 82 0.0 29 3   101.34     LegendNANA
03:00 10.4 4.6 67 0.0 30 6   101.41     LegendNANA
04:00 10.2 5.9 75 0.0 30 6   101.38     LegendNANA
05:00 10.0 7.3 83 0.0 36 8   101.38     LegendNANA
06:00 9.2 7.4 88 0.0 34 5   101.44     LegendNANA
07:00 10.3 8.0 86 0.0 1 8   101.49     LegendNANA
08:00 11.5 8.2 80 0.0 36 10   101.50     LegendNANA
09:00 12.6 8.0 74 0.0 35 12   101.52     LegendNANA
10:00 13.6 8.1 69 0.0 36 10   101.46     LegendNANA
11:00 14.8 6.9 59 0.0 36 8   101.43     LegendNANA
12:00 16.1 7.8 58 0.0 1 8   101.37     LegendNANA
13:00 15.2 7.1 58 0.0 1 9   101.27     LegendNANA
14:00 15.3 5.3 51 0.0 3 6   101.20     LegendNANA
15:00 15.7 5.7 51 0.0 1 8   101.14     LegendNANA
16:00 15.1 7.0 58 0.0 2 4   101.04     LegendNANA
17:00 14.1 5.9 58 0.0 1 5   100.92     LegendNANA
18:00 12.9 6.1 63 0.0 33 4   100.84     LegendNANA
19:00 11.7 7.1 73 0.0 26 2   100.73     LegendNANA
20:00 11.9 7.4 74 0.0 27 2   100.68     LegendNANA
21:00 11.3 7.8 79 0.0 25 1   100.60     LegendNANA
22:00 11.1 7.5 78 0.0 26 1   100.54     LegendNANA
23:00 12.0 7.3 73 0.0 26 4   100.50     LegendNANA

Notes on Data Quality.

Legend

  • E = Estimated
  • M = Missing
  • NA = Not Available*
  • [empty] = Indicates an unobserved value
Date modified: